Regional Weather Roundup
Issued by NWS

Home | Current Version | Previous Version | Text Only | Print | Product List | Glossary On
Versions: 1 2 3 4 5 6 7 8 9 10 11 12 13 14 15 16 17 18 19 20 21 22 23 24 25 26 27 28 29 30 31 32 33 34 35 36 37 38 39 40 41 42 43 44 45 46 47 48 49 50
000
ASUS43 KMPX 291210
RWRMN
WEATHER ROUNDUP FOR MINNESOTA
NATIONAL WEATHER SERVICE TWIN CITIES/CHANHASSEN MN
700 AM CDT THU SEP 29 2016


NOTE: "FAIR" INDICATES FEW OR NO CLOUDS BELOW 12,000 FEET WITH NO
SIGNIFICANT WEATHER AND/OR OBSTRUCTIONS TO VISIBILITY. N/A MEANS
CURRENT SKY AND/OR WEATHER CONDITIONS ARE NOT AVAILABLE.

MNZ060>063-068>070-291300-
   Twin Cities Metro

CITY           SKY/WX    TMP DP  RH WIND       PRES   REMARKS
TWIN CITIES    PTCLDY    47  45  93 N3        30.45R
6HR MIN TEMP:  47; 6HR MAX TEMP:  52;

ST PAUL        CLEAR     47  46  97 W3        30.46R
CRYSTAL        CLEAR     45  42  89 N3        30.44R
BLAINE         CLEAR     46  46 100 N5        30.45R
LAKEVILLE      CLEAR     45  45 100 CALM      30.43R
EDEN PRAIRIE   CLEAR     49  46  90 NE5       30.43R
6HR MIN TEMP:  49; 6HR MAX TEMP:  52;

LAKEVILLE      CLEAR     45  45 100 CALM      30.43R
SOUTH ST PAUL  CLEAR     48  47  98 CALM      30.44R
LAKE ELMO      FAIR      46  46 100 NE9       30.45R
$$
MNZ001>005-007-008-013>017-022>024-027-028-291300-
   Northwest Minnesota

CITY           SKY/WX    TMP DP  RH WIND       PRES   REMARKS
BEMIDJI        CLOUDY    48  47  96 CALM      30.49R
HALLOCK        CLOUDY    46  45  93 SE5       30.46F
ROSEAU         CLOUDY    52  46  82 CALM      30.49S
WARROAD        CLOUDY    52  46  82 CALM      30.49S
THIEF RVR FALL CLOUDY    50  47  89 E5        30.49S
CROOKSTON      CLOUDY    52  48  87 E3        30.48S
FOSSTON        CLEAR     39  37  93 E5        30.49S
DETROIT LAKES  PTCLDY    45  45 100 CALM      30.49R
MOORHEAD       CLOUDY    45  43  93 CALM      30.48S
PARK RAPIDS    CLOUDY    49  45  86 CALM      30.48R
MAHNOMEN       FAIR      41  40  97 E5        30.48R
$$
MNZ006-009>011-018-025>026-291300-
   North Central Minnesota

CITY           SKY/WX    TMP DP  RH WIND       PRES   REMARKS
BAUDETTE       CLOUDY    49  47  93 CALM      30.50R
FLAG ISLAND    CLOUDY    55  46  71 SE7       30.48S
INTL FALLS     CLOUDY    53  49  86 CALM      30.50R
6HR MIN TEMP:  51; 6HR MAX TEMP:  54;

WASKISH        CLOUDY    50  48  93 CALM      30.49S
BIG FORK       CLOUDY    52  48  87 CALM      30.50R
GRAND RAPIDS   CLOUDY    51  50  96 CALM      30.50R
ORR            CLOUDY    52  48  87 CALM      30.48R
COOK           CLOUDY    52  50  93 CALM      30.50R
WALKER         CLOUDY    48  47  97 CALM      30.48R
$$
MNZ012-019>021-037-291300-
   Northeast Minnesota

CITY           SKY/WX    TMP DP  RH WIND       PRES   REMARKS
DULUTH         CLOUDY    53  51  93 E7        30.48R
6HR MIN TEMP:  50; 6HR MAX TEMP:  53;

ELY            CLOUDY    52  50  93 CALM      30.49S
HIBBING        CLOUDY    50  49  96 CALM      30.48R
EVELETH        CLOUDY    53  50  92 CALM      30.49S
DULUTH HARBOR  CLOUDY    55  54  94 NE7       30.49R
TWO HARBORS    CLOUDY    55  52  88 CALM      30.47R
SILVER BAY     CLOUDY    54  50  87 CALM      30.47R
GRAND MARAIS     N/A     54  47  77 N9        30.48R
G MARAIS ARPRT CLOUDY    46  43  87 N5        30.51R
$$
MNZ029>031-032-039>041-046>048-054>057-064-291300-
   West Central Minnesota

CITY           SKY/WX    TMP DP  RH WIND       PRES   REMARKS
FERGUS FALLS   CLOUDY    48  46  93 E5        30.49S
MORRIS         CLEAR     43  41  93 CALM      30.45S
ALEXANDRIA     PTCLDY    45  45 100 NW3       30.47S
ELBOW LAKE     CLOUDY    49  46  89 CALM      30.47S
WADENA         CLOUDY    48  46  93 CALM      30.47R
GLENWOOD       CLEAR     46  45  93 N5        30.47
ORTONVILLE     CLOUDY    43  39  87 CALM      30.46R FOG
MADISON        CLOUDY    46  45  93 CALM      30.46R
WILLMAR        FAIR      45  45 100 CALM      30.46S
$$
MNZ033>034-036-042>043-049>051-058-059-291300-
   Central Minnesota

CITY           SKY/WX    TMP DP  RH WIND       PRES   REMARKS
ST CLOUD       CLEAR     44  44 100 N3        30.46R
6HR MIN TEMP:  42; 6HR MAX TEMP:  50;

SAUK CENTRE    FAIR      44  43  99 CALM      30.47R
PAYNESVILLE    CLEAR     40  40 100 CALM      30.46S
AITKIN         CLOUDY    54  48  82 CALM      30.46S
PINE RIVER     CLOUDY    52  52 100 CALM      30.50R
BRAINERD       CLOUDY    52  51  97 CALM      30.47S
STAPLES        CLOUDY    52  48  87 CALM      30.47S
LONG PRAIRIE   CLOUDY    50  46  87 CALM      30.47R
LITTLE FALLS   FOG       45  43  93 CALM      30.47S VSB 1
LITCHFIELD     CLEAR     46  46 100 CALM      30.46R
BUFFALO        CLEAR     46  44  93 NE3       30.46S
MAPLE LAKE     CLEAR     45  44  97 CALM      30.46S FOG
HUTCHINSON     PTCLDY    49  48  96 NE7       30.45S
$$
MNZ037-044-045-052-053-291300-
   East Central Minnesota

CITY           SKY/WX    TMP DP  RH WIND       PRES   REMARKS
PRINCETON      CLEAR     45  43  93 CALM      30.46S FOG
MORA           CLOUDY    48  46  93 CALM      30.48R
CAMBRIDGE      CLEAR     46  43  87 CALM      30.44S
MOOSE LAKE     CLOUDY    50  48  93 CALM      30.46R
HINCKLEY       CLOUDY    50  50 100 N3        30.46S
CLOQUET        CLOUDY    52  48  87 CALM      30.48R
MCGREGOR       CLOUDY    52  50  93 CALM      30.48R
$$
MNZ071>073-080-081-089-090-097-098-291300-
   Southwest Minnesota

CITY           SKY/WX    TMP DP  RH WIND       PRES   REMARKS
MONTEVIDEO     CLEAR     43  43 100 CALM      30.47R
GRANITE FALLS    N/A     40  38  96 CALM      30.47R
CANBY          CLOUDY    40  39  97 CALM      30.47R
MARSHALL       CLOUDY    38  37  97 W5        30.46R
REDWOOD FALLS  CLEAR     48  44  86 NE3       30.45R
OLIVIA         CLEAR     43  41  93 N3        30.44S
PIPESTONE      CLOUDY    45  43  93 CALM      30.44R
WINDOM         CLEAR     43  43 100 N3        30.43R
WORTHINGTON    CLEAR     41  40  96 NW7       30.44R
JACKSON        PTCLDY    41  39  93 CALM      30.43R FOG
TRACY          CLEAR     42  42  99 NW3       30.45R
$$
MNZ065>067-074>077-082>085-091>093-291300-
   South Central Minnesota

CITY           SKY/WX    TMP DP  RH WIND       PRES   REMARKS
MANKATO        CLEAR     46  45  96 N6        30.43R
NEW ULM        CLEAR     46  46 100 CALM      30.44R
ST JAMES       CLEAR     45  45 100 CALM      30.44R
FAIRMONT       CLEAR     44  43  96 N7        30.43R
GLENCOE        CLEAR     47  47 100 N3        30.44S
FARIBAULT      CLEAR     46  46 100 N3        30.43R
OWATONNA       PTCLDY    46  45  93 N3        30.42S
WASECA         CLEAR     45  43  93 N3        30.43S
ALBERT LEA     CLOUDY    52  50  93 CALM      30.41R FOG
$$
MNZ078>079-086>088-094>096-291300-
   Southeast Minnesota

CITY           SKY/WX    TMP DP  RH WIND       PRES   REMARKS
ROCHESTER      CLOUDY    50  49  96 N7        30.42R FOG
6HR MIN TEMP:  48; 6HR MAX TEMP:  52;

RED WING       CLEAR     45  45 100 CALM      30.42R
STANTON        FOG       45  43  93 CALM      30.42R VSB 1/4
DODGE CENTER   MOCLDY    45  45 100 N3        30.42R FOG
WINONA         CLEAR     50  48  93 CALM      30.41R
AUSTIN         CLOUDY    52  48  87 NE7       30.40R
PRESTON        CLEAR     47  46  96 N8        30.40R
$$
ABBREVIATIONS USED IN REMARKS
   TC - TEMPERATURES IN CELSIUS
  WCI - WIND CHILL INDEX
   HX - HEAT INDEX
  VSB - VISIBILITY
$$



USA.gov is the U.S. government's official web portal to all federal, state and local government web resources and services.